Regional Weather Roundup
Issued by NWS

Home | Current Version | Previous Version | Text Only | Print | Product List | Glossary On
Versions: 1 2 3 4 5 6 7 8 9 10 11 12 13 14 15 16 17 18 19 20 21 22 23 24 25 26 27 28 29 30 31 32 33 34 35 36 37 38 39 40 41 42 43 44 45 46 47 48 49 50
000
ASUS43 KLOT 251709
RWRIL

ILLINOIS REGIONAL WEATHER ROUNDUP
NATIONAL WEATHER SERVICE CHICAGO/ROMEOVILLE IL
1200 PM CDT SUN OCT 25 2020

NOTE: "FAIR" INDICATES FEW OR NO CLOUDS BELOW 12,000 FEET WITH NO
SIGNIFICANT WEATHER AND/OR OBSTRUCTIONS TO VISIBILITY.

* THESE STATIONS ARE NOT UNDER NWS QUALITY CONTROL. THEY ALSO MAY NOT
  REPORT WEATHER SUCH AS PRECIPITATION OR FOG.

ILZ001-002-007-009-015-016-024-251800-
NORTHWEST ILLINOIS

CITY           SKY/WX    TMP DP  RH WIND       PRES   REMARKS
MOLINE         CLOUDY    41  30  65 N9        30.21S
STERLING*      CLOUDY    41  33  73 NE10      30.23R
SAVANNA*       CLOUDY    37  28  70 N9        30.24S WCI  31
$$

ILZ003-004-008-010-011-017-018-251800-
NORTH CENTRAL ILLINOIS

CITY           SKY/WX    TMP DP  RH WIND       PRES   REMARKS
ROCKFORD       CLOUDY    42  30  62 NE12      30.25S
FREEPORT*      CLOUDY    38  27  65 N13       30.25S WCI  30
ROCHELLE*      CLOUDY    41  35  78 NE14      30.21S
DE KALB*       CLOUDY    42  35  75 NE14      30.19F
PERU*          CLOUDY    44  37  75 NE13      30.18S
$$

ILZ005-006-012>014-019>023-251800-
NORTHEAST ILLINOIS

CITY           SKY/WX    TMP DP  RH WIND       PRES   REMARKS
CHICAGO-OHARE  CLOUDY    47  35  63 NE15      30.19F
CHICAGO-MIDWAY CLOUDY    47  34  60 E13       30.19F
AURORA         CLOUDY    44  36  73 NE12      30.18F
JOLIET*        CLOUDY    49  37  63 E8        30.18F
WAUKEGAN       CLOUDY    45  34  65 NE10      30.21F
DUPAGE AIRPORT CLOUDY    45  35  68 NE13      30.18F
KANKAKEE*      CLOUDY    48  36  61 E14       30.16F
WHEELING       CLOUDY    47  35  63 NE12G20   30.22F
MORRIS*        CLOUDY    46  37  71 NE6       30.17F
ROMEOVILLE*    CLOUDY    46  37  70 E12       30.18F
LANSING*       CLOUDY    46  34  62 E8        30.19F
NORTHERLY ISL*   N/A     46  36  68 E12         N/A
$$

LMZ740>746-251800-
SOUTHERN LAKE MICHIGAN

STATION/POSITION SKY/WX   TEMP    WIND        PRES    VSBY  WAVE
                          AIR SEA DIR/SP/G                  HT/PER
                          (F)     (DEG/KT/KT) (MB)    (MI)  (FT/S)
SOUTHERN BUOY              44 53   60/ 10/ 12 1024.6F         2/ 5
WINTHROP HARBOR            45 47   70/ 10/ 12   N/A           3/ 5
HARRISON CRIB              45      70/ 12/ 13   N/A
NORTHERLY ISL              46      60/ 13/ 13   N/A
CALUMET HARBOR             46      60/ 10/ 12 1022.0
$$

ILZ025>027-034>036-040-047-049-050-058-095>099-251800-
WEST-CENTRAL ILLINOIS

CITY           SKY/WX    TMP DP  RH WIND       PRES   REMARKS
QUINCY         CLOUDY    43  34  70 NE9       30.14F
GALESBURG*     CLOUDY    39  31  73 NE10      30.18F WCI  33
MACOMB*        CLOUDY    43  35  74 NE15      30.18F
JACKSONVILLE*  CLOUDY    45  36  71 N10       30.13S
PITTSFIELD*    CLOUDY    46  37  72 NE10      30.14F
$$

ILZ028>032-037-038-041>044-048-051>054-059>061-251800-
CENTRAL ILLINOIS

CITY           SKY/WX    TMP DP  RH WIND       PRES   REMARKS
PONTIAC        CLOUDY    47  34  61 NE16      30.16F
BLOOMINGTON    CLOUDY    45  37  73 NE18      30.14F
DECATUR        CLOUDY    48  39  71 E13       30.11F
PEORIA         CLOUDY    45  35  68 N7        30.16F
LACON*         CLOUDY    44  35  72 NE8       30.17S
LINCOLN*       CLOUDY    48  34  59 NE10      30.14S
SPRINGFIELD    CLOUDY    48  37  65 NE10      30.12F
TAYLORVILLE    CLOUDY    46  37  69 NE6       30.10F
$$

ILZ033-039-045-046-055>057-062-063-251800-
EAST-CENTRAL ILLINOIS

CITY           SKY/WX    TMP DP  RH WIND       PRES   REMARKS
CHAMPAIGN      CLOUDY    48  38  68 NE14      30.10F
DANVILLE*      CLOUDY    48  37  64 E12G17    30.13F
RANTOUL*       CLOUDY    47  37  68 NE14G21   30.12F
MATTOON        CLOUDY    48  39  71 E13       30.08F
PARIS*         CLOUDY    51  39  63 MISG      30.11F
$$

ILZ079-100>102-251800-
SOUTHWEST ILLINOIS

CITY           SKY/WX    TMP DP  RH WIND       PRES   REMARKS
ALTON          CLOUDY    46  41  81 N7        30.11S
BELLEVILLE     CLOUDY    50  41  70 NE5       30.08R
CAHOKIA*       CLOUDY    50  40  68 N5        30.10S
SPARTA*        CLOUDY    50  39  66 CALM      30.08S
$$

ILZ064>066-069>071-074>076-080>082-084>086-088>090-092>094-251800-
SOUTH-CENTRAL ILLINOIS

CITY           SKY/WX    TMP DP  RH WIND       PRES   REMARKS
CARBONDALE     CLOUDY    53  41  63 NE7       30.06F
CAIRO*         CLOUDY    53  46  75 MISG      30.05F
EFFINGHAM*     CLOUDY    49  38  66 NE7       30.09F
MARION         CLOUDY    52  43  71 E3        30.06F
MT. VERNON     CLOUDY    52  41  66 NE9       30.06F
CENTRALIA*     CLOUDY    51  40  66 E3        30.07F
SALEM*         CLOUDY    51  39  63 CALM      30.07F
$$

ILZ067-068-072-073-078-083-087-091-251800-
SOUTHEAST ILLINOIS

CITY           SKY/WX    TMP DP  RH WIND       PRES   REMARKS
LAWRENCEVILLE  CLOUDY    48  44  86 NE9       30.09F
FLORA*         CLOUDY    48  41  76 E10       30.07F
FAIRFIELD*     CLOUDY    48  42  80 E5        30.06F
HARRISBURG*    CLOUDY    51  42  71 E6        30.07F
ROBINSON*      CLOUDY    48  41  75 E9        30.10F
CARMI*         CLOUDY    50  45  81 NE8       30.05F
$$

ABBREVIATIONS USED IN REMARKS
   TC - TEMPERATURE IN CELSIUS
  WCI - WIND CHILL INDEX
   HX - HEAT INDEX
  VSB - VISIBILITY
$$




USA.gov is the U.S. government's official web portal to all federal, state and local government web resources and services.